Location: Bednik
(45.3500°N, 16.3833°E)
Time: 08:20:54
(UTC+00:00)

NOSS 3-2 (C) - Pass Details

Date: 08 August 2020
Orbit: 793 x 1419 km, 63.4° (Epoch: 21 September)

Event Time Altitude Azimuth Distance (km) Brightness Sun altitude
Exits shadow 21:35:59 30° 232° (SW) 1,534 4.4 -25.9°
Maximum altitude 21:39:00 72° 311° (NW) 964 3.5 -26.1°
Drops below altitude 10° 21:45:32 10° 36° (NE) 2,828 6.3 -26.6°
Sets 21:48:23 0° 38° (NE) 3,884 7.1 -26.7°
